| time (UTC) | temp F | wind direction | speed knots | gust knots | rain 1hr in | rain 24hr in | rain mn in | humidity % | barometer mb |
| 20260508125406 | 88 | 39 | 3.5 | 6.1 | 0.00 | 0.00 | 0.00 | 60 | 1010.2 |
| 20260508124906 | 88 | 60 | 1.7 | 4.3 | 0.00 | 0.00 | 0.00 | 60 | 1010.2 |
| 20260508124406 | 88 | 77 | 2.6 | 4.3 | 0.00 | 0.00 | 0.00 | 60 | 1010.2 |
| 20260508123907 | 88 | 55 | 2.6 | 4.3 | 0.00 | 0.00 | 0.00 | 60 | 1009.8 |
| 20260508123407 | 88 | 68 | 3.5 | 5.2 | 0.00 | 0.00 | 0.00 | 60 | 1009.8 |
| 20260508122907 | 88 | 34 | 2.6 | 5.2 | 0.00 | 0.00 | 0.00 | 60 | 1009.5 |
| 20260508122407 | 88 | 45 | 0.9 | 2.6 | 0.00 | 0.00 | 0.00 | 60 | 1009.8 |
| 20260508121908 | 88 | 62 | 2.6 | 4.3 | 0.00 | 0.00 | 0.00 | 59 | 1009.8 |
| 20260508121406 | 88 | 65 | 3.5 | 6.1 | 0.00 | 0.00 | 0.00 | 59 | 1009.5 |
| 20260508120907 | 89 | 61 | 2.6 | 5.2 | 0.00 | 0.00 | 0.00 | 59 | 1009.8 |
| 20260508120407 | 89 | 71 | 4.3 | 5.2 | 0.00 | 0.00 | 0.00 | 59 | 1009.5 |
| 20260508115907 | 89 | 56 | 3.5 | 7.0 | 0.00 | 0.00 | 0.00 | 58 | 1009.5 |
| 20260508115408 | 89 | 60 | 1.7 | 2.6 | 0.00 | 0.00 | 0.00 | 58 | 1009.5 |
| 20260508114906 | 89 | 42 | 3.5 | 7.8 | 0.00 | 0.00 | 0.00 | 58 | 1009.5 |
| 20260508114406 | 89 | 58 | 1.7 | 4.3 | 0.00 | 0.00 | 0.00 | 58 | 1009.1 |
| 20260508113906 | 89 | 75 | 2.6 | 2.6 | 0.00 | 0.00 | 0.00 | 58 | 1009.5 |
| 20260508113406 | 89 | 89 | 2.6 | 4.3 | 0.00 | 0.00 | 0.00 | 58 | 1009.1 |
| 20260508112906 | 89 | 62 | 1.7 | 2.6 | 0.00 | 0.00 | 0.00 | 58 | 1008.8 |
| 20260508112406 | 89 | 71 | 1.7 | 2.6 | 0.00 | 0.00 | 0.00 | 57 | 1008.8 |
| 20260508111906 | 89 | 80 | 1.7 | 2.6 | 0.00 | 0.00 | 0.00 | 57 | 1009.1 |
| 20260508111406 | 90 | 121 | 0.9 | 1.7 | 0.00 | 0.00 | 0.00 | 57 | 1008.5 |
| 20260508110906 | 90 | 42 | 2.6 | 6.1 | 0.00 | 0.00 | 0.00 | 56 | 1008.8 |
| 20260508110406 | 90 | 23 | 1.7 | 7.0 | 0.00 | 0.00 | 0.00 | 56 | 1008.5 |
| 20260508105906 | 90 | 69 | 4.3 | 7.0 | 0.00 | 0.00 | 0.00 | 56 | 1008.5 |
| 20260508105406 | 90 | 83 | 1.7 | 6.1 | 0.00 | 0.00 | 0.00 | 56 | 1008.5 |
| 20260508104906 | 91 | 64 | 6.1 | 7.0 | 0.00 | 0.00 | 0.00 | 55 | 1008.5 |
| 20260508104408 | 91 | 47 | 3.5 | 6.1 | 0.00 | 0.00 | 0.00 | 55 | 1008.5 |
| 20260508103907 | 91 | 49 | 6.1 | 7.8 | 0.00 | 0.00 | 0.00 | 55 | 1008.5 |
| 20260508103406 | 91 | 35 | 4.3 | 7.0 | 0.00 | 0.00 | 0.00 | 54 | 1008.1 |
| 20260508102906 | 91 | 71 | 6.1 | 8.7 | 0.00 | 0.00 | 0.00 | 54 | 1008.1 |
| 20260508102406 | 91 | 68 | 4.3 | 8.7 | 0.00 | 0.00 | 0.00 | 53 | 1008.1 |
| 20260508101906 | 92 | 71 | 2.6 | 8.7 | 0.00 | 0.00 | 0.00 | 53 | 1007.8 |
| 20260508101408 | 92 | 66 | 5.2 | 8.7 | 0.00 | 0.00 | 0.00 | 53 | 1007.8 |
| 20260508100906 | 92 | 59 | 4.3 | 7.0 | 0.00 | 0.00 | 0.00 | 53 | 1007.8 |
| 20260508100406 | 93 | 74 | 3.5 | 8.7 | 0.00 | 0.00 | 0.00 | 52 | 1007.8 |
| 20260508095906 | 93 | 54 | 2.6 | 5.2 | 0.00 | 0.00 | 0.00 | 52 | 1007.8 |
| 20260508095406 | 93 | 55 | 5.2 | 7.0 | 0.00 | 0.00 | 0.00 | 52 | 1007.8 |
| 20260508094906 | 94 | 46 | 2.6 | 7.0 | 0.00 | 0.00 | 0.00 | 51 | 1007.5 |
| 20260508094406 | 94 | 54 | 6.1 | 7.0 | 0.00 | 0.00 | 0.00 | 50 | 1007.5 |
| 20260508093906 | 94 | 71 | 7.0 | 7.8 | 0.00 | 0.00 | 0.00 | 50 | 1007.5 |
| 20260508093406 | 94 | 55 | 4.3 | 6.1 | 0.00 | 0.00 | 0.00 | 50 | 1007.5 |
| 20260508092906 | 95 | 57 | 5.2 | 8.7 | 0.00 | 0.00 | 0.00 | 49 | 1007.1 |
| 20260508092406 | 95 | 62 | 4.3 | 7.0 | 0.00 | 0.00 | 0.00 | 49 | 1007.1 |
| 20260508091907 | 95 | 69 | 2.6 | 7.8 | 0.00 | 0.00 | 0.00 | 48 | 1007.1 |
| 20260508091406 | 95 | 40 | 5.2 | 7.0 | 0.00 | 0.00 | 0.00 | 47 | 1006.8 |
| 20260508090908 | 96 | 49 | 7.0 | 7.8 | 0.00 | 0.00 | 0.00 | 46 | 1006.8 |
| 20260508090406 | 96 | 56 | 3.5 | 6.1 | 0.00 | 0.00 | 0.00 | 46 | 1006.8 |
| 20260508085907 | 96 | 61 | 4.3 | 5.2 | 0.00 | 0.00 | 0.00 | 46 | 1006.8 |
| 20260508085408 | 96 | 306 | 0.0 | 0.9 | 0.00 | 0.00 | 0.00 | 48 | 1006.8 |
| 20260508084906 | 96 | 293 | 0.9 | 1.7 | 0.00 | 0.00 | 0.00 | 48 | 1006.8 |
| 20260508084407 | 96 | 264 | 0.9 | 1.7 | 0.00 | 0.00 | 0.00 | 48 | 1006.8 |
| 20260508083906 | 96 | 69 | 2.6 | 4.3 | 0.00 | 0.00 | 0.00 | 48 | 1006.8 |
| 20260508083406 | 96 | 75 | 0.9 | 1.7 | 0.00 | 0.00 | 0.00 | 46 | 1006.8 |
| 20260508082906 | 97 | 69 | 3.5 | 4.3 | 0.00 | 0.00 | 0.00 | 46 | 1006.8 |
| 20260508082406 | 97 | 66 | 0.9 | 4.3 | 0.00 | 0.00 | 0.00 | 48 | 1006.4 |
| 20260508081906 | 98 | 46 | 3.5 | 7.8 | 0.00 | 0.00 | 0.00 | 47 | 1006.4 |
| 20260508081406 | 97 | 59 | 0.9 | 1.7 | 0.00 | 0.00 | 0.00 | 49 | 1006.4 |
| 20260508080907 | 97 | 48 | 0.0 | 1.7 | 0.00 | 0.00 | 0.00 | 51 | 1006.8 |
| 20260508080406 | 97 | 68 | 0.0 | 4.3 | 0.00 | 0.00 | 0.00 | 53 | 1006.4 |
| 20260508075906 | 97 | 67 | 0.9 | 4.3 | 0.00 | 0.00 | 0.00 | 52 | 1006.4 |
| 20260508075406 | 96 | 356 | 0.9 | 1.7 | 0.00 | 0.00 | 0.00 | 52 | 1006.4 |
| 20260508074908 | 96 | 78 | 0.9 | 1.7 | 0.00 | 0.00 | 0.00 | 52 | 1006.8 |
| 20260508074407 | 94 | 269 | 1.7 | 2.6 | 0.00 | 0.00 | 0.00 | 55 | 1006.4 |
| 20260508073906 | 95 | 281 | 4.3 | 7.0 | 0.00 | 0.00 | 0.00 | 55 | 1006.4 |
| 20260508073406 | 94 | 298 | 5.2 | 6.1 | 0.00 | 0.00 | 0.00 | 56 | 1006.8 |
| 20260508072906 | 95 | 286 | 4.3 | 8.7 | 0.00 | 0.00 | 0.00 | 53 | 1006.8 |
| 20260508072407 | 94 | 313 | 2.6 | 6.1 | 0.00 | 0.00 | 0.00 | 55 | 1006.8 |
| 20260508071906 | 95 | 303 | 6.1 | 8.7 | 0.00 | 0.00 | 0.00 | 56 | 1006.8 |
| 20260508071407 | 96 | 303 | 3.5 | 7.8 | 0.00 | 0.00 | 0.00 | 54 | 1006.8 |
| 20260508070907 | 96 | 65 | 0.9 | 7.8 | 0.00 | 0.00 | 0.00 | 45 | 1006.8 |
| 20260508070406 | 97 | 46 | 3.5 | 9.6 | 0.00 | 0.00 | 0.00 | 45 | 1006.4 |
| 20260508065907 | 97 | 79 | 2.6 | 9.6 | 0.00 | 0.00 | 0.00 | 45 | 1006.4 |
| 20260508065407 | 97 | 86 | 6.1 | 8.7 | 0.00 | 0.00 | 0.00 | 45 | 1006.8 |
| 20260508064906 | 97 | 103 | 6.1 | 11.3 | 0.00 | 0.00 | 0.00 | 47 | 1006.8 |
| 20260508064407 | 97 | 72 | 1.7 | 11.3 | 0.00 | 0.00 | 0.00 | 47 | 1006.8 |
| 20260508063906 | 99 | 102 | 4.3 | 8.7 | 0.00 | 0.00 | 0.00 | 46 | 1006.1 |
| 20260508063407 | 98 | 59 | 8.7 | 9.6 | 0.00 | 0.00 | 0.00 | 46 | 1006.4 |
| 20260508062907 | 99 | 55 | 2.6 | 2.6 | 0.00 | 0.00 | 0.00 | 47 | 1006.8 |
| 20260508062407 | 98 | 89 | 2.6 | 2.6 | 0.00 | 0.00 | 0.00 | 49 | 1006.8 |
| 20260508061906 | 96 | 146 | 0.9 | 4.3 | 0.00 | 0.00 | 0.00 | 52 | 1007.1 |
| 20260508061406 | 97 | 81 | 4.3 | 4.3 | 0.00 | 0.00 | 0.00 | 52 | 1006.8 |
| 20260508060906 | 97 | 130 | 0.9 | 2.6 | 0.00 | 0.00 | 0.00 | 52 | 1006.8 |
| 20260508060406 | 97 | 170 | 2.6 | 4.3 | 0.00 | 0.00 | 0.00 | 52 | 1006.8 |
| 20260508055906 | 96 | 309 | 2.6 | 4.3 | 0.00 | 0.00 | 0.00 | 53 | 1006.8 |
| 20260508055407 | 96 | 267 | 5.2 | 7.0 | 0.00 | 0.00 | 0.00 | 54 | 1007.1 |
| 20260508054906 | 94 | 240 | 2.6 | 2.6 | 0.00 | 0.00 | 0.00 | 58 | 1007.5 |
| 20260508054407 | 95 | 252 | 4.3 | 7.0 | 0.00 | 0.00 | 0.00 | 56 | 1007.5 |
| 20260508053906 | 95 | 247 | 3.5 | 7.8 | 0.00 | 0.00 | 0.00 | 56 | 1007.5 |
| 20260508053406 | 98 | 303 | 4.3 | 6.1 | 0.00 | 0.00 | 0.00 | 53 | 1007.1 |
| 20260508052906 | 99 | 262 | 1.7 | 4.3 | 0.00 | 0.00 | 0.00 | 50 | 1007.5 |
| 20260508052406 | 100 | 60 | 2.6 | 8.7 | 0.00 | 0.00 | 0.00 | 48 | 1007.8 |
| 20260508051906 | 99 | 64 | 6.1 | 7.8 | 0.00 | 0.00 | 0.00 | 46 | 1007.5 |
| 20260508051406 | 99 | 53 | 3.5 | 7.8 | 0.00 | 0.00 | 0.00 | 47 | 1007.5 |
| 20260508050906 | 100 | 75 | 4.3 | 7.0 | 0.00 | 0.00 | 0.00 | 47 | 1007.8 |
| 20260508050406 | 100 | 76 | 4.3 | 6.1 | 0.00 | 0.00 | 0.00 | 47 | 1007.8 |
| 20260508045906 | 99 | 91 | 5.2 | 7.0 | 0.00 | 0.00 | 0.00 | 47 | 1007.8 |
| 20260508045407 | 98 | 83 | 3.5 | 6.1 | 0.00 | 0.00 | 0.00 | 49 | 1008.5 |
| 20260508044906 | 98 | 78 | 3.5 | 7.0 | 0.00 | 0.00 | 0.00 | 48 | 1008.1 |
| 20260508044406 | 98 | 82 | 8.7 | 12.2 | 0.00 | 0.00 | 0.00 | 48 | 1007.8 |
| 20260508043906 | 98 | 17 | 0.9 | 5.2 | 0.00 | 0.00 | 0.00 | 49 | 1008.1 |
| 20260508043406 | 99 | 91 | 3.5 | 9.6 | 0.00 | 0.00 | 0.00 | 47 | 1008.5 |
| 20260508042907 | 98 | 56 | 4.3 | 7.0 | 0.00 | 0.00 | 0.00 | 47 | 1008.5 |
| 20260508042406 | 98 | 39 | 2.6 | 5.2 | 0.00 | 0.00 | 0.00 | 47 | 1008.8 |
| 20260508041907 | 96 | 76 | 2.6 | 2.6 | 0.00 | 0.00 | 0.00 | 49 | 1008.5 |
| 20260508041406 | 96 | 57 | 4.3 | 7.0 | 0.00 | 0.00 | 0.00 | 50 | 1008.5 |
| 20260508040907 | 97 | 35 | 2.6 | 7.0 | 0.00 | 0.00 | 0.00 | 50 | 1008.8 |
| 20260508040406 | 99 | 65 | 4.3 | 7.0 | 0.00 | 0.00 | 0.00 | 48 | 1008.8 |
| 20260508035906 | 98 | 29 | 0.9 | 5.2 | 0.00 | 0.00 | 0.00 | 46 | 1008.5 |
| 20260508035406 | 98 | 110 | 2.6 | 7.0 | 0.00 | 0.00 | 0.00 | 46 | 1008.8 |
| 20260508034906 | 96 | 308 | 3.5 | 5.2 | 0.00 | 0.00 | 0.00 | 49 | 1009.1 |
| 20260508034406 | 96 | 70 | 2.6 | 4.3 | 0.00 | 0.00 | 0.00 | 51 | 1009.1 |
| 20260508033909 | 95 | 71 | 1.7 | 4.3 | 0.00 | 0.00 | 0.00 | 53 | 1009.1 |
| 20260508033407 | 95 | 17 | 1.7 | 4.3 | 0.00 | 0.00 | 0.00 | 54 | 1009.1 |
| 20260508032906 | 96 | 65 | 7.8 | 9.6 | 0.00 | 0.00 | 0.00 | 50 | 1009.1 |
| 20260508032407 | 95 | 55 | 2.6 | 5.2 | 0.00 | 0.00 | 0.00 | 51 | 1009.1 |
| 20260508031906 | 94 | 82 | 3.5 | 7.8 | 0.00 | 0.00 | 0.00 | 53 | 1009.1 |
| 20260508031406 | 94 | 243 | 3.5 | 4.3 | 0.00 | 0.00 | 0.00 | 58 | 1009.5 |
| 20260508030907 | 92 | 211 | 3.5 | 6.1 | 0.00 | 0.00 | 0.00 | 61 | 1009.5 |
| 20260508030406 | 93 | 231 | 3.5 | 4.3 | 0.00 | 0.00 | 0.00 | 60 | 1009.5 |
| 20260508025906 | 94 | 225 | 6.1 | 7.0 | 0.00 | 0.00 | 0.00 | 57 | 1009.5 |
| 20260508025406 | 94 | 200 | 4.3 | 6.1 | 0.00 | 0.00 | 0.00 | 58 | 1009.8 |
| 20260508024906 | 93 | 80 | 6.1 | 9.6 | 0.00 | 0.00 | 0.00 | 58 | 1009.5 |
| 20260508024406 | 93 | 166 | 2.6 | 11.3 | 0.00 | 0.00 | 0.00 | 60 | 1009.8 |
| 20260508023907 | 95 | 212 | 0.9 | 7.0 | 0.00 | 0.00 | 0.00 | 59 | 1010.2 |
| 20260508023406 | 94 | 110 | 2.6 | 6.1 | 0.00 | 0.00 | 0.00 | 57 | 1009.8 |
| 20260508022906 | 94 | 223 | 5.2 | 7.0 | 0.00 | 0.00 | 0.00 | 58 | 1010.2 |
| 20260508022407 | 95 | 123 | 1.7 | 4.3 | 0.00 | 0.00 | 0.00 | 55 | 1010.2 |
| 20260508021907 | 95 | 168 | 2.6 | 6.1 | 0.00 | 0.00 | 0.00 | 56 | 1010.2 |
| 20260508021406 | 95 | 53 | 3.5 | 7.8 | 0.00 | 0.00 | 0.00 | 54 | 1010.2 |
| 20260508020907 | 94 | 347 | 5.2 | 9.6 | 0.00 | 0.00 | 0.00 | 56 | 1010.2 |
| 20260508020406 | 94 | 135 | 5.2 | 7.8 | 0.00 | 0.00 | 0.00 | 55 | 1010.2 |
| 20260508015906 | 94 | 65 | 2.6 | 5.2 | 0.00 | 0.00 | 0.00 | 56 | 1010.2 |
| 20260508015406 | 93 | 108 | 0.9 | 7.8 | 0.00 | 0.00 | 0.00 | 56 | 1010.2 |
| 20260508014906 | 94 | 64 | 4.3 | 7.8 | 0.00 | 0.00 | 0.00 | 55 | 1010.2 |
| 20260508014406 | 94 | 99 | 0.9 | 5.2 | 0.00 | 0.00 | 0.00 | 56 | 1010.5 |
| 20260508013906 | 93 | 49 | 1.7 | 2.6 | 0.00 | 0.00 | 0.00 | 57 | 1010.2 |
| 20260508013406 | 92 | 110 | 0.0 | 2.6 | 0.00 | 0.00 | 0.00 | 59 | 1010.2 |
| 20260508012906 | 93 | 69 | 2.6 | 5.2 | 0.00 | 0.00 | 0.00 | 59 | 1010.5 |
| 20260508012406 | 92 | 60 | 2.6 | 8.7 | 0.00 | 0.00 | 0.00 | 58 | 1010.5 |
| 20260508011906 | 93 | 141 | 2.6 | 7.8 | 0.00 | 0.00 | 0.00 | 58 | 1010.5 |
| 20260508011406 | 94 | 66 | 5.2 | 7.8 | 0.00 | 0.00 | 0.00 | 56 | 1010.5 |
| 20260508010906 | 93 | 56 | 4.3 | 6.1 | 0.00 | 0.00 | 0.00 | 58 | 1010.5 |
| 20260508010407 | 95 | 133 | 4.3 | 7.8 | 0.00 | 0.00 | 0.00 | 55 | 1010.5 |
| 20260508005907 | 93 | 68 | 1.7 | 4.3 | 0.00 | 0.00 | 0.00 | 58 | 1010.8 |
| 20260508005406 | 92 | 61 | 4.3 | 6.1 | 0.00 | 0.00 | 0.00 | 58 | 1010.8 |
| 20260508004906 | 92 | 52 | 1.7 | 7.0 | 0.00 | 0.00 | 0.00 | 60 | 1010.8 |
| 20260508004406 | 92 | 99 | 3.5 | 6.1 | 0.00 | 0.00 | 0.00 | 60 | 1010.5 |
| 20260508003907 | 92 | 122 | 2.6 | 7.0 | 0.00 | 0.00 | 0.00 | 58 | 1010.8 |
| 20260508003406 | 91 | 28 | 3.5 | 7.0 | 0.00 | 0.00 | 0.00 | 60 | 1010.8 |
| 20260508002907 | 93 | 61 | 4.3 | 7.8 | 0.00 | 0.00 | 0.00 | 57 | 1010.8 |
| 20260508002406 | 91 | 59 | 4.3 | 6.1 | 0.00 | 0.00 | 0.00 | 59 | 1010.8 |
| 20260508001906 | 92 | 67 | 3.5 | 5.2 | 0.00 | 0.00 | 0.00 | 58 | 1010.8 |
| 20260508001406 | 93 | 36 | 2.6 | 5.2 | 0.00 | 0.00 | 0.00 | 59 | 1010.5 |
| 20260508000906 | 91 | 66 | 1.7 | 2.6 | 0.00 | 0.00 | 0.00 | 60 | 1010.5 |
| 20260507234506 | 92 | 45 | 0.0 | 1.7 | 0.00 | 0.00 | 0.00 | 60 | 1010.5 |
| 20260507131608 | 87 | 50 | 5.2 | 7.0 | 0.00 | 0.00 | 0.00 | 64 | 1009.1 |
| 20260507131107 | 87 | 63 | 2.6 | 5.2 | 0.00 | 0.00 | 0.00 | 64 | 1009.1 |
| 20260507130607 | 87 | 66 | 3.5 | 4.3 | 0.00 | 0.00 | 0.00 | 64 | 1009.1 |
| 20260507130106 | 87 | 65 | 2.6 | 6.1 | 0.00 | 0.00 | 0.00 | 64 | 1009.5 |